| time (UTC) | temp C | wind direction | speed KPH | gust KPH | rain 1hr cm | rain 24hr cm | rain mn cm | humidity % | barometer mb |
| 20260508150143 | 27 | 338 | 8.0 | 20.9 | 0.00 | 0.00 | 0.00 | 26 | 1000.7 |
| 20260508143412 | 24 | 293 | 3.2 | 16.1 | 0.00 | 0.00 | 0.00 | 42 | 1000.9 |
| 20260508133042 | 28 | 315 | 11.3 | 20.9 | 0.00 | 0.00 | 0.00 | 37 | 1000.8 |
| 20260508130042 | 30 | 315 | 9.7 | 16.1 | 0.00 | 0.00 | 0.00 | 21 | 1000.8 |
| 20260508123043 | 30 | 315 | 9.7 | 22.5 | 0.00 | 0.00 | 0.00 | 22 | 1001.0 |
| 20260508120042 | 31 | 315 | 8.0 | 19.3 | 0.00 | 0.00 | 0.00 | 27 | 1001.1 |
| 20260508113042 | 30 | 315 | 8.0 | 17.7 | 0.00 | 0.00 | 0.00 | 22 | 1001.2 |
| 20260508110041 | 30 | 293 | 4.8 | 12.9 | 0.00 | 0.00 | 0.00 | 30 | 1001.3 |
| 20260508103042 | 30 | 23 | 4.8 | 14.5 | 0.00 | 0.00 | 0.00 | 28 | 1001.4 |
| 20260508100046 | 29 | 90 | 6.4 | 12.9 | 0.00 | 0.00 | 0.00 | 27 | 1001.5 |
| 20260508093043 | 28 | 315 | 4.8 | 14.5 | 0.00 | 0.00 | 0.00 | 28 | 1001.6 |
| 20260508090042 | 29 | 293 | 3.2 | 9.7 | 0.00 | 0.00 | 0.00 | 33 | 1001.7 |
| 20260508083413 | 28 | 270 | 3.2 | 9.7 | 0.00 | 0.00 | 0.00 | 41 | 1001.9 |
| 20260508080041 | 27 | 270 | 3.2 | 9.7 | 0.00 | 0.00 | 0.00 | 37 | 1002.0 |
| 20260508073042 | 26 | 293 | 4.8 | 9.7 | 0.00 | 0.00 | 0.00 | 45 | 1002.0 |
| 20260508070041 | 25 | 90 | 3.2 | 9.7 | 0.00 | 0.00 | 0.00 | 41 | 1001.9 |
| 20260508063044 | 24 | 45 | 4.8 | 12.9 | 0.00 | 0.00 | 0.00 | 44 | 1001.9 |
| 20260508053041 | 21 | 293 | 3.2 | 9.7 | 0.00 | 0.03 | 0.00 | 58 | 1002.0 |
| 20260508050041 | 20 | 315 | 4.8 | 9.7 | 0.00 | 0.03 | 0.00 | 60 | 1002.0 |
| 20260508043041 | 19 | 315 | 3.2 | 8.0 | 0.00 | 0.03 | 0.00 | 65 | 1001.9 |
| 20260508040433 | 18 | 315 | 1.6 | 6.4 | 0.00 | 0.03 | 0.00 | 69 | 1001.8 |
| 20260508033041 | 17 | 270 | 1.6 | 6.4 | 0.00 | 0.03 | 0.00 | 73 | 1001.6 |
| 20260508030041 | 15 | 158 | 3.2 | 9.7 | 0.00 | 0.03 | 0.00 | 79 | 1001.4 |
| 20260508023041 | 13 | 23 | 1.6 | 9.7 | 0.00 | 0.03 | 0.00 | 81 | 1001.2 |
| 20260508020041 | 13 | 225 | 3.2 | 8.0 | 0.00 | 0.03 | 0.00 | 76 | 1000.9 |
| 20260508013041 | 14 | 270 | 4.8 | 11.3 | 0.00 | 0.03 | 0.00 | 74 | 1001.0 |
| 20260508010041 | 15 | 225 | 4.8 | 19.3 | 0.00 | 0.03 | 0.00 | 72 | 1001.1 |
| 20260508003041 | 16 | 248 | 14.5 | 24.1 | 0.00 | 0.03 | 0.00 | 72 | 1001.0 |
| 20260508000041 | 15 | 0 | 3.2 | 9.7 | 0.00 | 0.03 | 0.00 | 81 | 1001.5 |
| 20260507233040 | 15 | 248 | 4.8 | 12.9 | 0.00 | 0.03 | 0.00 | 78 | 1001.6 |
| 20260507230040 | 15 | 90 | 3.2 | 11.3 | 0.00 | 0.03 | 0.00 | 80 | 1002.2 |
| 20260507223040 | 12 | 0.0 | 3.2 | 0.00 | 0.03 | 0.00 | 84 | 1001.4 | |
| 20260507220041 | 13 | 0.0 | 6.4 | 0.00 | 0.03 | 0.00 | 78 | 1001.3 | |
| 20260507213041 | 13 | 0.0 | 1.6 | 0.00 | 0.03 | 0.00 | 77 | 1001.3 | |
| 20260507210041 | 15 | 0.0 | 3.2 | 0.00 | 0.03 | 0.03 | 76 | 1001.4 | |
| 20260507203101 | 16 | 315 | 3.2 | 8.0 | 0.00 | 0.03 | 0.03 | 73 | 1001.5 |
| 20260507200041 | 15 | 293 | 3.2 | 9.7 | 0.00 | 0.03 | 0.03 | 76 | 1001.6 |
| 20260507193045 | 16 | 315 | 3.2 | 8.0 | 0.00 | 0.03 | 0.03 | 72 | 1001.3 |
| 20260507190040 | 16 | 315 | 1.6 | 8.0 | 0.00 | 0.03 | 0.03 | 73 | 1001.1 |
| 20260507183041 | 16 | 338 | 3.2 | 9.7 | 0.00 | 0.03 | 0.03 | 73 | 1001.1 |
| 20260507180412 | 16 | 270 | 1.6 | 8.0 | 0.00 | 0.03 | 0.03 | 74 | 1001.2 |
| 20260507173040 | 16 | 270 | 1.6 | 6.4 | 0.00 | 0.03 | 0.03 | 74 | 1001.1 |
| 20260507170040 | 17 | 270 | 3.2 | 9.7 | 0.00 | 0.03 | 0.03 | 74 | 1000.9 |
| 20260507163041 | 17 | 270 | 4.8 | 14.5 | 0.00 | 0.03 | 0.03 | 73 | 1000.6 |
| 20260507160041 | 19 | 248 | 9.7 | 20.9 | 0.00 | 0.03 | 0.03 | 67 | 1000.4 |
| 20260507153101 | 18 | 270 | 4.8 | 16.1 | 0.00 | 0.03 | 0.03 | 70 | 1000.5 |